Flag for U.S.A. Weather past 2 weeks in French Lick, Indiana, U.S.A.

Now
66 °F

Sunny.


Feels Like: 66 °F
Forecast: 44 / 75 °F
Wind: 12 mph from Southwest

Location: Huntingburg Airport

Current Time: May 22, 2015 at 12:41:20 PM

Latest Report: May 22, 2015 at 12:15 PM


Visibility: 10 mi

Pressure: 30.27 "Hg

Humidity: 56%

Dew point: 50 °F

Location of French LickLocation

Historic Weather in French Lick — Graph

°F

French Lick temperature yesterday

Maximum temperature yesterday: 57 °F (at 4:15 PM)
Minimum temperature yesterday: 46 °F (at 11:55 PM)
Average temperature yesterday: 52 °F

Past Weeks' High & Low Weather Summary

 TemperatureHumidityPressure
High86 °F (May 8, 4:55 PM)93% (May 13, 6:55 AM)30.41 "Hg (May 13, 6:55 AM)
Low43 °F (May 22, 4:35 AM)33% (May 7, 5:15 PM)29.94 "Hg (May 11, 11:35 AM)
Average66 °F70%30.12 "Hg
* Reported May 7 11:15 AM — May 22 11:35 AM, French Lick, Weather by CustomWeather, © 2015

Note: Actual official high and low records may vary slightly from our data, if they occured in-between our weather recording intervals... More about our weather records

Advertising

French Lick weather history for previous 24 hours

 ConditionsComfort  
Time TempWeatherWind HumidityBarometerVisibility
11:35 AM
Fri, May 22
64 °FSunny.10 mph56%30.27 "Hg10 mi
11:15 AM64 °FSunny.9 mph56%30.27 "Hg10 mi
10:55 AM63 °FSunny.14 mph59%30.27 "Hg10 mi
10:35 AM61 °FSunny.13 mph63%30.28 "Hg10 mi
10:15 AM61 °FSunny.13 mph63%30.28 "Hg10 mi
9:55 AM57 °FSunny.12 mph67%30.27 "Hg10 mi
9:35 AM55 °FSunny.9 mph72%30.27 "Hg10 mi
9:15 AM54 °FSunny.7 mph77%30.27 "Hg10 mi
8:55 AM54 °FSunny.6 mph72%30.26 "Hg10 mi
8:35 AM52 °FSunny.5 mph77%30.26 "Hg10 mi
8:15 AM50 °FSunny.3 mph82%30.26 "Hg10 mi
7:55 AM48 °FSunny.6 mph82%30.26 "Hg9 mi
7:35 AM46 °FSunny.3 mph87%30.25 "Hg7 mi
7:15 AM45 °FClear.3 mph87%30.25 "Hg5 mi
6:55 AM45 °FClear.3 mph81%30.24 "Hg4 mi
6:35 AM43 °FClear.5 mph87%30.24 "Hg3 mi
6:15 AM43 °FClear.5 mph87%30.23 "Hg5 mi
5:55 AM43 °FClear.5 mph87%30.22 "Hg4 mi
5:35 AM43 °FClear.5 mph87%30.21 "Hg5 mi
5:15 AM43 °FClear.No wind87%30.21 "Hg5 mi
4:55 AM45 °FClear.5 mph81%30.21 "Hg7 mi
4:35 AM43 °FClear.5 mph87%30.20 "Hg7 mi
4:15 AM45 °FClear.No wind81%30.19 "Hg9 mi
3:55 AM45 °FClear.No wind81%30.19 "Hg10 mi
3:35 AM45 °FClear.No wind87%30.19 "Hg10 mi
3:15 AM45 °FClear.5 mph81%30.19 "Hg10 mi
2:55 AM45 °FClear.5 mph81%30.18 "Hg10 mi
2:35 AM46 °FClear.5 mph76%30.18 "Hg10 mi
2:15 AM46 °FClear.5 mph82%30.18 "Hg10 mi
1:55 AM46 °FClear.3 mph82%30.18 "Hg10 mi
1:35 AM46 °FClear.3 mph82%30.19 "Hg10 mi
1:15 AM46 °FClear.3 mph82%30.19 "Hg10 mi
12:55 AM46 °FClear.3 mph82%30.19 "Hg10 mi
12:35 AM46 °FClear.3 mph87%30.19 "Hg10 mi
12:15 AM46 °FClear.3 mph82%30.19 "Hg10 mi
11:55 PM
Thu, May 21
46 °FClear.3 mph82%30.19 "Hg10 mi
11:35 PM48 °FClear.3 mph82%30.19 "Hg10 mi
11:15 PM48 °FClear.No wind82%30.19 "Hg10 mi
10:55 PM50 °FClear.No wind76%30.19 "Hg10 mi
10:35 PM50 °FClear.No wind76%30.19 "Hg10 mi
10:15 PM50 °FClear.3 mph71%30.19 "Hg10 mi
9:55 PM50 °FSunny.3 mph71%30.18 "Hg10 mi
9:35 PM52 °FSunny.6 mph72%30.17 "Hg10 mi
9:15 PM52 °FSunny.6 mph72%30.17 "Hg10 mi
8:55 PM54 °FSunny.6 mph67%30.16 "Hg10 mi
8:35 PM55 °FSunny.6 mph63%30.15 "Hg10 mi
8:15 PM57 °FSunny.6 mph59%30.15 "Hg10 mi
7:55 PM57 °FSunny.7 mph59%30.15 "Hg10 mi
7:35 PM57 °FSunny.12 mph59%30.15 "Hg10 mi
7:15 PM57 °FPassing clouds.8 mph63%30.15 "Hg10 mi
6:55 PM57 °FScattered clouds.12 mph63%30.15 "Hg10 mi
6:35 PM57 °FScattered clouds.8 mph63%30.16 "Hg10 mi
6:15 PM57 °FPassing clouds.9 mph59%30.16 "Hg10 mi
5:55 PM57 °FScattered clouds.14 mph63%30.16 "Hg10 mi
5:35 PM57 °FPartly sunny.13 mph63%30.17 "Hg10 mi
5:15 PM57 °FOvercast.9 mph63%30.16 "Hg10 mi
4:55 PM55 °FMore clouds than sun.13 mph67%30.17 "Hg10 mi
4:35 PM55 °FCloudy.9 mph63%30.17 "Hg10 mi
4:15 PM57 °FOvercast.12 mph63%30.17 "Hg10 mi
3:55 PM55 °FMostly cloudy.10 mph67%30.18 "Hg10 mi
3:35 PM55 °FOvercast.10 mph67%30.17 "Hg10 mi
2:55 PM54 °FCloudy.12 mph67%30.16 "Hg10 mi
2:35 PM54 °FCloudy.8 mph72%30.16 "Hg10 mi
2:15 PM54 °FMostly cloudy.9 mph72%30.16 "Hg9 mi
1:55 PM52 °FMostly cloudy.12 mph72%30.16 "Hg9 mi
1:35 PM54 °FCloudy.9 mph72%30.15 "Hg9 mi
1:15 PM54 °FMostly cloudy.10 mph72%30.15 "Hg10 mi
12:55 PM54 °FMore clouds than sun.12 mph72%30.14 "Hg10 mi
12:35 PM54 °FMostly cloudy.12 mph72%30.14 "Hg10 mi
12:15 PM52 °FMostly cloudy.10 mph77%30.14 "Hg10 mi
Weather by CustomWeather, © 2015

See weather overviewHow to use our weather pages